Time,TemperatureF,DewpointF,PressureIn,WindDirection,WindDirectionDegrees,WindSpeedMPH,WindSpeedGustMPH,Humidity,HourlyPrecipIn,Conditions,Clouds,dailyrainin,SoftwareType,DateUTC
2013-01-03 00:05:00,4.1,-8.2,30.12,NW,316,0.0,0.0,56,0.00,CLR,,0.00,WeatherDisplay:10.37,2013-01-03 05:05:00,
2013-01-03 00:10:00,2.7,-9.4,30.12,NW,316,0.0,0.0,56,0.00,CLR,,0.00,WeatherDisplay:10.37,2013-01-03 05:10:00,
2013-01-03 00:15:00,2.3,-9.9,30.11,NW,316,0.0,0.0,56,0.00,CLR,,0.00,WeatherDisplay:10.37,2013-01-03 05:15:00,
2013-01-03 00:20:00,1.6,-10.5,30.11,NW,316,0.0,0.0,56,0.00,CLR,,0.00,WeatherDisplay:10.37,2013-01-03 05:20:00,
2013-01-03 00:25:00,1.9,-10.2,30.11,NW,316,0.0,0.0,56,0.00,CLR,,0.00,WeatherDisplay:10.37,2013-01-03 05:25:00,
2013-01-03 00:30:00,2.5,-9.7,30.12,NW,316,0.0,0.0,56,0.00,CLR,,0.00,WeatherDisplay:10.37,2013-01-03 05:30:00,
2013-01-03 00:35:00,2.2,-9.9,30.12,NW,316,0.0,0.0,56,0.00,CLR,,0.00,WeatherDisplay:10.37,2013-01-03 05:35:00,
2013-01-03 00:40:00,1.4,-10.7,30.12,NW,316,0.0,0.0,56,0.00,CLR,,0.00,WeatherDisplay:10.37,2013-01-03 05:40:00,
2013-01-03 00:45:00,3.0,-9.2,30.12,NW,316,0.0,0.0,56,0.00,CLR,,0.00,WeatherDisplay:10.37,2013-01-03 05:45:00,
2013-01-03 00:50:00,1.7,-10.4,30.12,NW,316,0.0,0.0,56,0.00,CLR,,0.00,WeatherDisplay:10.37,2013-01-03 05:50:00,
2013-01-03 00:55:00,1.9,-10.2,30.13,NW,316,0.0,0.0,56,0.00,CLR,,0.00,WeatherDisplay:10.37,2013-01-03 05:55:00,
2013-01-03 01:00:00,1.4,-10.6,30.13,NW,316,0.0,0.0,56,0.00,CLR,,0.00,WeatherDisplay:10.37,2013-01-03 06:00:00,
2013-01-03 01:05:00,2.6,-9.6,30.13,NW,316,0.0,0.0,56,0.00,CLR,,0.00,WeatherDisplay:10.37,2013-01-03 06:05:00,
2013-01-03 01:10:00,2.1,-10.0,30.14,NW,316,0.0,0.0,56,0.00,CLR,,0.00,WeatherDisplay:10.37,2013-01-03 06:10:00,
2013-01-03 01:15:00,3.3,-8.9,30.14,NW,316,0.0,0.0,56,0.00,CLR,,0.00,WeatherDisplay:10.37,2013-01-03 06:15:00,
2013-01-03 01:25:00,3.6,-8.6,30.15,NW,316,0.0,0.0,56,0.00,CLR,,0.00,WeatherDisplay:10.37,2013-01-03 06:25:00,
2013-01-03 01:30:00,0.7,-11.3,30.15,NW,316,0.0,0.0,56,0.00,CLR,,0.00,WeatherDisplay:10.37,2013-01-03 06:30:00,
2013-01-03 01:35:00,0.4,-11.6,30.15,NW,316,0.0,0.0,56,0.00,CLR,,0.00,WeatherDisplay:10.37,2013-01-03 06:35:00,
2013-01-03 01:40:00,1.4,-10.7,30.14,NW,316,0.0,0.0,56,0.00,CLR,,0.00,WeatherDisplay:10.37,2013-01-03 06:40:00,
2013-01-03 01:45:00,0.1,-11.9,30.14,NW,316,0.0,0.0,56,0.00,CLR,,0.00,WeatherDisplay:10.37,2013-01-03 06:45:00,
2013-01-03 01:50:00,-0.1,-12.1,30.14,NW,316,0.0,0.0,56,0.00,CLR,,0.00,WeatherDisplay:10.37,2013-01-03 06:50:00,
2013-01-03 02:00:00,1.4,-10.7,30.14,NW,316,0.0,0.0,56,0.00,CLR,,0.00,WeatherDisplay:10.37,2013-01-03 07:00:00,
2013-01-03 02:05:00,2.5,-8.6,30.14,NW,316,0.0,0.0,59,0.00,CLR,,0.00,WeatherDisplay:10.37,2013-01-03 07:05:00,
2013-01-03 02:10:00,2.6,-8.5,30.14,NW,316,0.0,0.0,59,0.00,CLR,,0.00,WeatherDisplay:10.37,2013-01-03 07:10:00,
2013-01-03 02:15:00,0.3,-10.7,30.13,NW,316,0.0,0.0,59,0.00,CLR,,0.00,WeatherDisplay:10.37,2013-01-03 07:15:00,
2013-01-03 02:20:00,0.1,-10.9,30.14,NW,316,0.0,0.0,59,0.00,CLR,,0.00,WeatherDisplay:10.37,2013-01-03 07:20:00,
2013-01-03 02:25:00,1.9,-9.2,30.14,NW,316,0.0,0.0,59,0.00,CLR,,0.00,WeatherDisplay:10.37,2013-01-03 07:25:00,
2013-01-03 02:30:00,0.9,-10.1,30.14,NW,316,0.0,0.0,59,0.00,CLR,,0.00,WeatherDisplay:10.37,2013-01-03 07:30:00,
2013-01-03 02:35:00,0.9,-10.1,30.13,NW,316,0.0,0.0,59,0.00,CLR,,0.00,WeatherDisplay:10.37,2013-01-03 07:35:00,
2013-01-03 02:40:00,1.9,-9.2,30.13,NW,316,0.0,0.0,59,0.00,CLR,,0.00,WeatherDisplay:10.37,2013-01-03 07:40:00,
2013-01-03 02:45:00,1.3,-9.7,30.13,NW,316,0.0,0.0,59,0.00,CLR,,0.00,WeatherDisplay:10.37,2013-01-03 07:45:00,
2013-01-03 02:50:00,1.9,-9.2,30.14,NW,316,0.0,0.0,59,0.00,CLR,,0.00,WeatherDisplay:10.37,2013-01-03 07:50:00,
2013-01-03 02:55:00,1.4,-9.6,30.14,NW,316,0.0,0.0,59,0.00,CLR,,0.00,WeatherDisplay:10.37,2013-01-03 07:55:00,
2013-01-03 03:00:00,-1.0,-11.9,30.14,NW,316,0.0,0.0,59,0.00,CLR,,0.00,WeatherDisplay:10.37,2013-01-03 08:00:00,
2013-01-03 03:05:00,0.6,-9.4,30.14,NW,316,0.0,0.0,62,0.00,CLR,,0.00,WeatherDisplay:10.37,2013-01-03 08:05:00,
2013-01-03 03:10:00,-0.2,-10.1,30.14,NW,316,0.0,0.0,62,0.00,CLR,,0.00,WeatherDisplay:10.37,2013-01-03 08:10:00,
2013-01-03 03:15:00,1.9,-8.1,30.14,NW,316,0.0,0.0,62,0.00,CLR,,0.00,WeatherDisplay:10.37,2013-01-03 08:15:00,
2013-01-03 03:20:00,0.4,-9.6,30.14,NW,316,0.0,0.0,62,0.00,CLR,,0.00,WeatherDisplay:10.37,2013-01-03 08:20:00,
2013-01-03 03:25:00,0.2,-9.8,30.13,NW,316,0.0,0.0,62,0.00,CLR,,0.00,WeatherDisplay:10.37,2013-01-03 08:25:00,
2013-01-03 03:30:00,0.1,-9.9,30.13,NW,316,0.0,0.0,62,0.00,CLR,,0.00,WeatherDisplay:10.37,2013-01-03 08:30:00,
2013-01-03 03:35:00,-0.8,-10.7,30.13,NW,316,0.0,0.0,62,0.00,CLR,,0.00,WeatherDisplay:10.37,2013-01-03 08:35:00,
2013-01-03 03:40:00,-0.8,-10.7,30.13,NW,316,0.0,0.0,62,0.00,CLR,,0.00,WeatherDisplay:10.37,2013-01-03 08:40:00,
2013-01-03 03:45:00,-2.3,-12.2,30.13,NW,316,0.0,0.0,62,0.00,CLR,,0.00,WeatherDisplay:10.37,2013-01-03 08:45:00,
2013-01-03 03:50:00,0.6,-9.4,30.13,NW,316,0.0,0.0,62,0.00,CLR,,0.00,WeatherDisplay:10.37,2013-01-03 08:50:00,
2013-01-03 03:55:00,-0.5,-10.4,30.13,NW,316,0.0,0.0,62,0.00,CLR,,0.00,WeatherDisplay:10.37,2013-01-03 08:55:00,
2013-01-03 04:00:00,-1.3,-11.2,30.12,NW,316,0.0,0.0,62,0.00,CLR,,0.00,WeatherDisplay:10.37,2013-01-03 09:00:00,
2013-01-03 04:05:00,-0.9,-11.8,30.12,NW,316,0.0,0.0,59,0.00,CLR,,0.00,WeatherDisplay:10.37,2013-01-03 09:05:00,
2013-01-03 04:10:00,0.7,-10.3,30.12,NW,316,0.0,0.0,59,0.00,CLR,,0.00,WeatherDisplay:10.37,2013-01-03 09:10:00,
2013-01-03 04:15:00,-0.8,-11.7,30.11,NW,316,0.0,0.0,59,0.00,CLR,,0.00,WeatherDisplay:10.37,2013-01-03 09:15:00,
2013-01-03 04:20:00,-1.5,-12.3,30.11,NW,316,0.0,0.0,59,0.00,CLR,,0.00,WeatherDisplay:10.37,2013-01-03 09:20:00,
2013-01-03 04:25:00,-1.4,-12.2,30.11,NW,316,0.0,0.0,59,0.00,CLR,,0.00,WeatherDisplay:10.37,2013-01-03 09:25:00,
2013-01-03 04:30:00,-1.1,-12.0,30.12,NW,316,0.0,0.0,59,0.00,CLR,,0.00,WeatherDisplay:10.37,2013-01-03 09:30:00,
2013-01-03 04:35:00,-1.4,-12.3,30.12,NW,316,0.0,0.0,59,0.00,CLR,,0.00,WeatherDisplay:10.37,2013-01-03 09:35:00,
2013-01-03 04:40:00,-2.2,-13.0,30.12,NW,316,0.0,0.0,59,0.00,CLR,,0.00,WeatherDisplay:10.37,2013-01-03 09:40:00,
2013-01-03 04:45:00,-2.3,-13.1,30.12,NW,316,0.0,0.0,59,0.00,CLR,,0.00,WeatherDisplay:10.37,2013-01-03 09:45:00,
2013-01-03 04:50:00,-0.1,-11.1,30.12,NW,316,0.0,0.0,59,0.00,CLR,,0.00,WeatherDisplay:10.37,2013-01-03 09:50:00,
2013-01-03 04:55:00,-0.2,-11.2,30.12,NW,316,0.0,0.0,59,0.00,CLR,,0.00,WeatherDisplay:10.37,2013-01-03 09:55:00,
2013-01-03 05:00:00,-1.3,-12.1,30.12,NW,316,0.0,0.0,59,0.00,CLR,,0.00,WeatherDisplay:10.37,2013-01-03 10:00:00,
2013-01-03 05:05:00,-1.2,-11.4,30.12,NW,316,0.0,0.0,61,0.00,CLR,,0.00,WeatherDisplay:10.37,2013-01-03 10:05:00,
2013-01-03 05:10:00,-0.4,-10.6,30.12,NW,316,0.0,0.0,61,0.00,CLR,,0.00,WeatherDisplay:10.37,2013-01-03 10:10:00,
2013-01-03 05:15:00,-1.4,-11.6,30.12,NW,316,0.0,0.0,61,0.00,CLR,,0.00,WeatherDisplay:10.37,2013-01-03 10:15:00,
2013-01-03 05:20:00,0.1,-10.1,30.12,NW,316,0.0,0.0,61,0.00,CLR,,0.00,WeatherDisplay:10.37,2013-01-03 10:20:00,
2013-01-03 05:25:00,-0.6,-10.9,30.13,NW,316,0.0,0.0,61,0.00,CLR,,0.00,WeatherDisplay:10.37,2013-01-03 10:25:00,
2013-01-03 05:30:00,-1.0,-11.2,30.12,NW,316,0.0,0.0,61,0.00,CLR,,0.00,WeatherDisplay:10.37,2013-01-03 10:30:00,
2013-01-03 05:40:00,-0.6,-10.8,30.13,NW,316,0.0,0.0,61,0.00,CLR,,0.00,WeatherDisplay:10.37,2013-01-03 10:40:00,
2013-01-03 05:45:00,-1.3,-11.5,30.12,NW,316,0.0,0.0,61,0.00,CLR,,0.00,WeatherDisplay:10.37,2013-01-03 10:45:00,
2013-01-03 05:55:00,-1.9,-12.0,30.12,NW,316,0.0,0.0,61,0.00,CLR,,0.00,WeatherDisplay:10.37,2013-01-03 10:55:00,
2013-01-03 06:00:00,-1.2,-11.4,30.13,NW,316,0.0,0.0,61,0.00,CLR,,0.00,WeatherDisplay:10.37,2013-01-03 11:00:00,
2013-01-03 06:05:00,0.0,-7.2,30.12,NW,316,0.0,0.0,71,0.00,CLR,,0.00,WeatherDisplay:10.37,2013-01-03 11:05:00,
2013-01-03 06:10:00,-1.8,-8.9,30.13,NW,316,0.0,0.0,71,0.00,CLR,,0.00,WeatherDisplay:10.37,2013-01-03 11:10:00,
2013-01-03 06:15:00,-1.8,-8.9,30.13,NW,316,0.0,0.0,71,0.00,CLR,,0.00,WeatherDisplay:10.37,2013-01-03 11:15:00,
2013-01-03 06:20:00,-1.4,-8.5,30.13,NW,316,0.0,0.0,71,0.00,CLR,,0.00,WeatherDisplay:10.37,2013-01-03 11:20:00,
2013-01-03 06:30:00,-1.7,-8.8,30.13,NW,316,0.0,0.0,71,0.00,CLR,,0.00,WeatherDisplay:10.37,2013-01-03 11:30:00,
2013-01-03 06:35:00,-1.5,-8.6,30.13,NW,316,0.0,0.0,71,0.00,CLR,,0.00,WeatherDisplay:10.37,2013-01-03 11:35:00,
2013-01-03 06:40:00,-1.5,-8.7,30.13,NW,316,0.0,0.0,71,0.00,CLR,,0.00,WeatherDisplay:10.37,2013-01-03 11:40:00,
2013-01-03 06:45:00,-1.1,-8.3,30.13,NW,316,0.0,0.0,71,0.00,CLR,,0.00,WeatherDisplay:10.37,2013-01-03 11:45:00,
2013-01-03 06:55:00,-0.6,-7.8,30.12,NW,316,0.0,0.0,71,0.00,CLR,,0.00,WeatherDisplay:10.37,2013-01-03 11:55:00,
2013-01-03 07:00:00,-1.4,-8.6,30.12,NW,316,0.0,0.0,71,0.00,CLR,,0.00,WeatherDisplay:10.37,2013-01-03 12:00:00,
2013-01-03 07:05:00,-2.5,-9.6,30.12,NW,316,0.0,0.0,71,0.00,CLR,,0.00,WeatherDisplay:10.37,2013-01-03 12:05:00,
2013-01-03 07:10:00,-0.7,-7.8,30.12,NW,316,0.0,0.0,71,0.00,CLR,,0.00,WeatherDisplay:10.37,2013-01-03 12:10:00,
2013-01-03 07:15:00,-1.6,-8.7,30.12,NW,316,0.0,0.0,71,0.00,CLR,,0.00,WeatherDisplay:10.37,2013-01-03 12:15:00,
2013-01-03 07:20:00,-0.9,-8.0,30.12,NW,316,0.0,0.0,71,0.00,CLR,,0.00,WeatherDisplay:10.37,2013-01-03 12:20:00,
2013-01-03 07:25:00,-0.9,-8.1,30.13,NW,316,0.0,0.0,71,0.00,CLR,,0.00,WeatherDisplay:10.37,2013-01-03 12:25:00,
2013-01-03 07:30:00,-0.8,-7.9,30.12,NW,316,0.0,0.0,71,0.00,CLR,,0.00,WeatherDisplay:10.37,2013-01-03 12:30:00,
2013-01-03 07:35:00,-1.5,-8.6,30.12,NW,316,0.0,0.0,71,0.00,CLR,,0.00,WeatherDisplay:10.37,2013-01-03 12:35:00,
2013-01-03 07:40:00,-1.7,-8.9,30.12,NW,316,0.0,0.0,71,0.00,CLR,,0.00,WeatherDisplay:10.37,2013-01-03 12:40:00,
2013-01-03 07:45:00,-1.8,-8.9,30.12,NW,316,0.0,0.0,71,0.00,CLR,,0.00,WeatherDisplay:10.37,2013-01-03 12:45:00,
2013-01-03 07:50:00,-2.7,-9.7,30.12,NW,316,0.0,0.0,71,0.00,CLR,,0.00,WeatherDisplay:10.37,2013-01-03 12:50:00,
2013-01-03 07:55:00,-0.7,-7.9,30.12,NW,316,0.0,0.0,71,0.00,CLR,,0.00,WeatherDisplay:10.37,2013-01-03 12:55:00,
2013-01-03 08:00:00,0.6,-6.6,30.11,NW,316,0.0,0.0,71,0.00,CLR,,0.00,WeatherDisplay:10.37,2013-01-03 13:00:00,
2013-01-03 08:05:00,-0.4,-9.7,30.11,NW,316,0.0,0.0,64,0.00,CLR,,0.00,WeatherDisplay:10.37,2013-01-03 13:05:00,
2013-01-03 08:10:00,-0.2,-9.5,30.11,NW,316,0.0,0.0,64,0.00,CLR,,0.00,WeatherDisplay:10.37,2013-01-03 13:10:00,
2013-01-03 08:15:00,0.3,-9.0,30.11,NW,316,0.0,0.0,64,0.00,CLR,,0.00,WeatherDisplay:10.37,2013-01-03 13:15:00,
2013-01-03 08:20:00,0.6,-8.7,30.11,NW,316,0.0,0.0,64,0.00,CLR,,0.00,WeatherDisplay:10.37,2013-01-03 13:20:00,
2013-01-03 08:25:00,0.1,-9.2,30.11,NW,316,0.0,0.0,64,0.00,CLR,,0.00,WeatherDisplay:10.37,2013-01-03 13:25:00,
2013-01-03 08:35:00,0.6,-8.7,30.11,NW,316,0.0,0.0,64,0.00,CLR,,0.00,WeatherDisplay:10.37,2013-01-03 13:35:00,
2013-01-03 08:40:00,1.2,-8.2,30.11,NW,316,0.0,0.0,64,0.00,CLR,,0.00,WeatherDisplay:10.37,2013-01-03 13:40:00,
2013-01-03 08:45:00,0.8,-8.5,30.11,NW,316,0.0,0.0,64,0.00,CLR,,0.00,WeatherDisplay:10.37,2013-01-03 13:45:00,
2013-01-03 08:50:00,1.4,-7.9,30.11,NW,316,0.0,0.0,64,0.00,CLR,,0.00,WeatherDisplay:10.37,2013-01-03 13:50:00,
2013-01-03 08:55:00,1.7,-7.7,30.11,NW,316,0.0,0.0,64,0.00,CLR,,0.00,WeatherDisplay:10.37,2013-01-03 13:55:00,
2013-01-03 09:00:00,1.4,-7.9,30.11,NW,316,0.0,0.0,64,0.00,CLR,,0.00,WeatherDisplay:10.37,2013-01-03 14:00:00,
2013-01-03 09:05:00,2.9,-9.3,30.11,NW,316,0.0,0.0,56,0.00,CLR,,0.00,WeatherDisplay:10.37,2013-01-03 14:05:00,
2013-01-03 09:10:00,4.7,-7.6,30.10,NW,316,0.0,0.0,56,0.00,CLR,,0.00,WeatherDisplay:10.37,2013-01-03 14:10:00,
2013-01-03 09:15:00,4.5,-7.7,30.10,NW,316,0.0,0.0,56,0.00,CLR,,0.00,WeatherDisplay:10.37,2013-01-03 14:15:00,
2013-01-03 09:20:00,5.0,-7.3,30.10,NW,316,0.0,0.0,56,0.00,CLR,,0.00,WeatherDisplay:10.37,2013-01-03 14:20:00,
2013-01-03 09:25:00,5.6,-6.7,30.10,NW,316,0.0,3.0,56,0.00,CLR,,0.00,WeatherDisplay:10.37,2013-01-03 14:25:00,
2013-01-03 09:30:00,6.1,-6.3,30.10,NW,316,0.0,0.0,56,0.00,CLR,,0.00,WeatherDisplay:10.37,2013-01-03 14:30:00,
2013-01-03 09:35:00,7.1,-5.3,30.10,NW,323,0.0,5.0,56,0.00,CLR,,0.00,WeatherDisplay:10.37,2013-01-03 14:35:00,
2013-01-03 09:40:00,7.9,-4.6,30.10,NW,324,0.0,7.0,56,0.00,CLR,,0.00,WeatherDisplay:10.37,2013-01-03 14:40:00,
2013-01-03 09:45:00,7.9,-4.6,30.10,NW,319,0.0,0.0,56,0.00,CLR,,0.00,WeatherDisplay:10.37,2013-01-03 14:45:00,
2013-01-03 09:50:00,8.6,-3.9,30.11,NW,319,0.0,0.0,56,0.00,CLR,,0.00,WeatherDisplay:10.37,2013-01-03 14:50:00,
2013-01-03 10:00:00,9.5,-3.0,30.11,NW,319,0.0,0.0,56,0.00,CLR,,0.00,WeatherDisplay:10.37,2013-01-03 15:00:00,
2013-01-03 10:10:00,10.2,-6.1,30.10,NW,319,0.0,0.0,47,0.00,CLR,,0.00,WeatherDisplay:10.37,2013-01-03 15:10:00,
2013-01-03 10:15:00,10.5,-5.8,30.10,NW,319,0.0,0.0,47,0.00,CLR,,0.00,WeatherDisplay:10.37,2013-01-03 15:15:00,
2013-01-03 10:20:00,10.9,-5.4,30.09,NW,319,0.0,0.0,47,0.00,CLR,,0.00,WeatherDisplay:10.37,2013-01-03 15:20:00,
2013-01-03 10:25:00,11.7,-4.7,30.10,NW,319,0.0,0.0,47,0.00,CLR,,0.00,WeatherDisplay:10.37,2013-01-03 15:25:00,
2013-01-03 10:30:00,12.4,-4.0,30.10,NW,319,0.0,0.0,47,0.00,CLR,,0.00,WeatherDisplay:10.37,2013-01-03 15:30:00,
2013-01-03 10:35:00,12.3,-4.1,30.10,NW,319,0.0,0.0,47,0.00,CLR,,0.00,WeatherDisplay:10.37,2013-01-03 15:35:00,
2013-01-03 10:40:00,12.6,-3.8,30.10,NW,319,0.0,0.0,47,0.00,CLR,,0.00,WeatherDisplay:10.37,2013-01-03 15:40:00,
2013-01-03 10:45:00,13.0,-3.5,30.10,NW,319,0.0,0.0,47,0.00,CLR,,0.00,WeatherDisplay:10.37,2013-01-03 15:45:00,
2013-01-03 10:50:00,13.4,-3.2,30.09,NW,319,0.0,0.0,47,0.00,CLR,,0.00,WeatherDisplay:10.37,2013-01-03 15:50:00,
2013-01-03 11:00:00,14.0,-2.5,30.09,NW,319,0.0,0.0,47,0.00,CLR,,0.00,WeatherDisplay:10.37,2013-01-03 16:00:00,
2013-01-03 11:05:00,14.8,-2.7,30.09,NW,319,0.0,0.0,45,0.00,CLR,,0.00,WeatherDisplay:10.37,2013-01-03 16:05:00,
2013-01-03 11:10:00,15.6,-2.0,30.08,NW,317,3.0,8.0,45,0.00,CLR,,0.00,WeatherDisplay:10.37,2013-01-03 16:10:00,
2013-01-03 11:15:00,16.5,-1.2,30.08,WNW,302,0.0,3.0,45,0.00,CLR,,0.00,WeatherDisplay:10.37,2013-01-03 16:15:00,
2013-01-03 11:20:00,17.1,-0.6,30.08,WNW,294,0.0,0.0,45,0.00,CLR,,0.00,WeatherDisplay:10.37,2013-01-03 16:20:00,
2013-01-03 11:25:00,16.8,-0.9,30.08,WNW,294,0.0,0.0,45,0.00,CLR,,0.00,WeatherDisplay:10.37,2013-01-03 16:25:00,
2013-01-03 11:30:00,16.6,-1.1,30.07,WNW,294,0.0,0.0,45,0.00,CLR,,0.00,WeatherDisplay:10.37,2013-01-03 16:30:00,
2013-01-03 11:40:00,17.1,-0.7,30.07,WNW,294,0.0,0.0,45,0.00,CLR,,0.00,WeatherDisplay:10.37,2013-01-03 16:40:00,
2013-01-03 11:45:00,16.8,-0.9,30.07,WNW,294,0.0,0.0,45,0.00,CLR,,0.00,WeatherDisplay:10.37,2013-01-03 16:45:00,
2013-01-03 11:50:00,16.5,-1.2,30.06,WNW,294,0.0,0.0,45,0.00,CLR,,0.00,WeatherDisplay:10.37,2013-01-03 16:50:00,
2013-01-03 11:55:00,17.1,-0.6,30.06,WNW,294,0.0,0.0,45,0.00,CLR,,0.00,WeatherDisplay:10.37,2013-01-03 16:55:00,
2013-01-03 12:00:00,17.8,0.0,30.06,WNW,294,0.0,0.0,45,0.00,CLR,,0.00,WeatherDisplay:10.37,2013-01-03 17:00:00,
2013-01-03 12:05:00,18.1,-1.7,30.06,WNW,294,0.0,0.0,41,0.00,CLR,,0.00,WeatherDisplay:10.37,2013-01-03 17:05:00,
2013-01-03 12:10:00,18.0,-1.8,30.06,WNW,294,0.0,0.0,41,0.00,CLR,,0.00,WeatherDisplay:10.37,2013-01-03 17:10:00,
2013-01-03 12:20:00,18.6,-1.2,30.06,NW,306,0.0,0.0,41,0.00,CLR,,0.00,WeatherDisplay:10.37,2013-01-03 17:20:00,
2013-01-03 12:25:00,19.8,-0.2,30.06,NW,309,0.0,0.0,41,0.00,CLR,,0.00,WeatherDisplay:10.37,2013-01-03 17:25:00,
2013-01-03 12:30:00,18.9,-0.9,30.05,NW,309,0.0,0.0,41,0.00,CLR,,0.00,WeatherDisplay:10.37,2013-01-03 17:30:00,
2013-01-03 12:35:00,18.3,-1.6,30.05,NW,309,0.0,0.0,41,0.00,CLR,,0.00,WeatherDisplay:10.37,2013-01-03 17:35:00,
2013-01-03 12:40:00,18.5,-1.3,30.05,NW,309,0.0,0.0,41,0.00,CLR,,0.00,WeatherDisplay:10.37,2013-01-03 17:40:00,
2013-01-03 12:45:00,19.0,-0.9,30.04,NW,312,0.0,5.0,41,0.00,CLR,,0.00,WeatherDisplay:10.37,2013-01-03 17:45:00,
2013-01-03 12:50:00,19.0,-0.9,30.04,NW,312,0.0,0.0,41,0.00,CLR,,0.00,WeatherDisplay:10.37,2013-01-03 17:50:00,
2013-01-03 12:55:00,18.8,-1.1,30.04,NW,315,0.0,5.0,41,0.00,CLR,,0.00,WeatherDisplay:10.37,2013-01-03 17:55:00,
2013-01-03 13:00:00,19.0,-0.9,30.04,NW,315,0.0,3.0,41,0.00,CLR,,0.00,WeatherDisplay:10.37,2013-01-03 18:00:00,
2013-01-03 13:05:00,18.3,-2.0,30.03,NW,311,0.0,0.0,40,0.00,SCT,,0.00,WeatherDisplay:10.37,2013-01-03 18:05:00,
2013-01-03 13:10:00,18.7,-1.7,30.03,NW,311,0.0,0.0,40,0.00,SCT,,0.00,WeatherDisplay:10.37,2013-01-03 18:10:00,
2013-01-03 13:15:00,18.3,-2.0,30.03,NW,311,0.0,0.0,40,0.00,SCT,,0.00,WeatherDisplay:10.37,2013-01-03 18:15:00,
2013-01-03 13:20:00,18.4,-2.0,30.03,NW,311,0.0,0.0,40,0.00,SCT,,0.00,WeatherDisplay:10.37,2013-01-03 18:20:00,
2013-01-03 13:25:00,18.5,-1.8,30.03,NNW,333,0.0,9.0,40,0.00,SCT,,0.00,WeatherDisplay:10.37,2013-01-03 18:25:00,
2013-01-03 13:30:00,18.3,-2.0,30.03,North,358,0.0,0.0,40,0.00,SCT,,0.00,WeatherDisplay:10.37,2013-01-03 18:30:00,
2013-01-03 13:35:00,18.8,-1.6,30.03,North,1,0.0,0.0,40,0.00,SCT,,0.00,WeatherDisplay:10.37,2013-01-03 18:35:00,
2013-01-03 13:40:00,18.0,-2.3,30.03,North,1,0.0,0.0,40,0.00,SCT,,0.00,WeatherDisplay:10.37,2013-01-03 18:40:00,
2013-01-03 13:45:00,18.7,-1.6,30.03,North,1,0.0,0.0,40,0.00,SCT,,0.00,WeatherDisplay:10.37,2013-01-03 18:45:00,
2013-01-03 13:50:00,18.8,-1.6,30.02,North,1,0.0,0.0,40,0.00,SCT,,0.00,WeatherDisplay:10.37,2013-01-03 18:50:00,
2013-01-03 13:55:00,18.9,-1.4,30.02,North,1,0.0,0.0,40,0.00,SCT,,0.00,WeatherDisplay:10.37,2013-01-03 18:55:00,
2013-01-03 14:00:00,18.1,-2.2,30.02,North,1,0.0,0.0,40,0.00,SCT,,0.00,WeatherDisplay:10.37,2013-01-03 19:00:00,
2013-01-03 14:05:00,18.5,-1.8,30.02,North,1,0.0,0.0,40,0.00,BKN,,0.00,WeatherDisplay:10.37,2013-01-03 19:05:00,
2013-01-03 14:10:00,19.4,-1.1,30.02,North,1,0.0,0.0,40,0.00,BKN,,0.00,WeatherDisplay:10.37,2013-01-03 19:10:00,
2013-01-03 14:15:00,18.4,-1.9,30.02,North,1,0.0,0.0,40,0.00,BKN,,0.00,WeatherDisplay:10.37,2013-01-03 19:15:00,
2013-01-03 15:00:00,19.5,-1.0,30.01,North,1,0.0,0.0,40,0.00,BKN,,0.00,WeatherDisplay:10.37,2013-01-03 20:00:00,
2013-01-03 15:05:00,19.5,-3.2,30.01,North,1,0.0,0.0,36,0.00,BKN,,0.00,WeatherDisplay:10.37,2013-01-03 20:05:00,
2013-01-03 15:10:00,19.0,-3.6,30.00,North,1,0.0,6.0,36,0.00,BKN,,0.00,WeatherDisplay:10.37,2013-01-03 20:10:00,
2013-01-03 15:15:00,19.3,-3.4,30.01,North,1,0.0,0.0,36,0.00,BKN,,0.00,WeatherDisplay:10.37,2013-01-03 20:15:00,
2013-01-03 15:20:00,18.8,-3.8,30.00,North,1,0.0,0.0,36,0.00,BKN,,0.00,WeatherDisplay:10.37,2013-01-03 20:20:00,
2013-01-03 15:25:00,19.7,-3.0,30.00,North,1,0.0,0.0,36,0.00,BKN,,0.00,WeatherDisplay:10.37,2013-01-03 20:25:00,
2013-01-03 15:30:00,18.6,-4.0,30.00,North,1,0.0,0.0,36,0.00,BKN,,0.00,WeatherDisplay:10.37,2013-01-03 20:30:00,
2013-01-03 15:35:00,18.5,-4.0,30.00,North,1,0.0,0.0,36,0.00,BKN,,0.00,WeatherDisplay:10.37,2013-01-03 20:35:00,
2013-01-03 15:40:00,17.7,-4.8,30.01,North,1,0.0,0.0,36,0.00,BKN,,0.00,WeatherDisplay:10.37,2013-01-03 20:40:00,
2013-01-03 15:45:00,18.9,-3.7,30.01,North,1,0.0,0.0,36,0.00,BKN,,0.00,WeatherDisplay:10.37,2013-01-03 20:45:00,
2013-01-03 15:50:00,18.4,-4.2,30.00,North,1,0.0,0.0,36,0.00,BKN,,0.00,WeatherDisplay:10.37,2013-01-03 20:50:00,
2013-01-03 15:55:00,17.7,-4.8,30.00,North,1,0.0,0.0,36,0.00,BKN,,0.00,WeatherDisplay:10.37,2013-01-03 20:55:00,
2013-01-03 16:00:00,17.1,-5.4,30.00,North,1,0.0,0.0,36,0.00,BKN,,0.00,WeatherDisplay:10.37,2013-01-03 21:00:00,
2013-01-03 16:05:00,17.6,-3.7,30.00,North,1,0.0,0.0,38,0.00,FEW,,0.00,WeatherDisplay:10.37,2013-01-03 21:05:00,
2013-01-03 16:10:00,17.1,-4.2,30.00,North,1,0.0,0.0,38,0.00,FEW,,0.00,WeatherDisplay:10.37,2013-01-03 21:10:00,
2013-01-03 16:20:00,15.4,-5.7,30.00,North,1,0.0,0.0,38,0.00,FEW,,0.00,WeatherDisplay:10.37,2013-01-03 21:20:00,
2013-01-03 16:25:00,15.8,-5.4,30.00,North,1,0.0,0.0,38,0.00,FEW,,0.00,WeatherDisplay:10.37,2013-01-03 21:25:00,
2013-01-03 16:30:00,14.9,-6.2,30.00,North,1,0.0,0.0,38,0.00,FEW,,0.00,WeatherDisplay:10.37,2013-01-03 21:30:00,
2013-01-03 16:35:00,14.6,-6.4,30.00,North,1,0.0,0.0,38,0.00,FEW,,0.00,WeatherDisplay:10.37,2013-01-03 21:35:00,
2013-01-03 16:40:00,15.7,-5.5,30.01,North,1,0.0,0.0,38,0.00,FEW,,0.00,WeatherDisplay:10.37,2013-01-03 21:40:00,
2013-01-03 16:45:00,14.0,-7.0,30.00,North,1,0.0,0.0,38,0.00,FEW,,0.00,WeatherDisplay:10.37,2013-01-03 21:45:00,
2013-01-03 16:50:00,14.3,-6.7,30.01,North,1,0.0,0.0,38,0.00,FEW,,0.00,WeatherDisplay:10.37,2013-01-03 21:50:00,
2013-01-03 16:55:00,14.7,-6.4,30.01,North,1,0.0,0.0,38,0.00,FEW,,0.00,WeatherDisplay:10.37,2013-01-03 21:55:00,
2013-01-03 17:00:00,13.6,-7.3,30.01,North,1,0.0,0.0,38,0.00,FEW,,0.00,WeatherDisplay:10.37,2013-01-03 22:00:00,
2013-01-03 17:05:00,13.0,-5.3,30.01,North,1,0.0,0.0,43,0.00,CLR,,0.00,WeatherDisplay:10.37,2013-01-03 22:05:00,
2013-01-03 17:10:00,13.6,-4.8,30.01,North,1,0.0,0.0,43,0.00,CLR,,0.00,WeatherDisplay:10.37,2013-01-03 22:10:00,
2013-01-03 17:15:00,13.0,-5.3,30.01,North,1,0.0,0.0,43,0.00,CLR,,0.00,WeatherDisplay:10.37,2013-01-03 22:15:00,
2013-01-03 17:20:00,13.0,-5.4,30.01,North,1,0.0,0.0,43,0.00,CLR,,0.00,WeatherDisplay:10.37,2013-01-03 22:20:00,
2013-01-03 17:25:00,14.1,-4.4,30.02,North,1,0.0,0.0,43,0.00,CLR,,0.00,WeatherDisplay:10.37,2013-01-03 22:25:00,
2013-01-03 17:30:00,13.4,-5.0,30.02,North,1,0.0,0.0,43,0.00,CLR,,0.00,WeatherDisplay:10.37,2013-01-03 22:30:00,
2013-01-03 17:40:00,10.5,-7.7,30.02,North,1,0.0,0.0,43,0.00,CLR,,0.00,WeatherDisplay:10.37,2013-01-03 22:40:00,
2013-01-03 17:45:00,11.4,-6.8,30.01,North,1,0.0,0.0,43,0.00,CLR,,0.00,WeatherDisplay:10.37,2013-01-03 22:45:00,
2013-01-03 17:50:00,10.3,-7.8,30.02,North,1,0.0,0.0,43,0.00,CLR,,0.00,WeatherDisplay:10.37,2013-01-03 22:50:00,
2013-01-03 17:55:00,11.5,-6.7,30.02,North,1,0.0,0.0,43,0.00,CLR,,0.00,WeatherDisplay:10.37,2013-01-03 22:55:00,
2013-01-03 18:00:00,11.9,-6.4,30.01,North,1,0.0,0.0,43,0.00,CLR,,0.00,WeatherDisplay:10.37,2013-01-03 23:00:00,
2013-01-03 18:05:00,11.8,-3.3,30.01,North,1,0.0,0.0,50,0.00,CLR,,0.00,WeatherDisplay:10.37,2013-01-03 23:05:00,
2013-01-03 18:10:00,11.8,-3.3,30.01,North,1,0.0,0.0,50,0.00,CLR,,0.00,WeatherDisplay:10.37,2013-01-03 23:10:00,
2013-01-03 18:15:00,10.8,-4.3,30.01,North,1,0.0,0.0,50,0.00,CLR,,0.00,WeatherDisplay:10.37,2013-01-03 23:15:00,
2013-01-03 18:20:00,11.0,-4.0,30.01,North,1,0.0,0.0,50,0.00,CLR,,0.00,WeatherDisplay:10.37,2013-01-03 23:20:00,
2013-01-03 18:25:00,10.5,-4.5,30.02,North,1,0.0,0.0,50,0.00,CLR,,0.00,WeatherDisplay:10.37,2013-01-03 23:25:00,
2013-01-03 18:30:00,10.0,-4.9,30.01,North,1,0.0,0.0,50,0.00,CLR,,0.00,WeatherDisplay:10.37,2013-01-03 23:30:00,
2013-01-03 18:35:00,10.0,-5.0,30.01,North,1,0.0,0.0,50,0.00,CLR,,0.00,WeatherDisplay:10.37,2013-01-03 23:35:00,
2013-01-03 18:40:00,11.4,-3.7,30.01,North,1,0.0,0.0,50,0.00,CLR,,0.00,WeatherDisplay:10.37,2013-01-03 23:40:00,
2013-01-03 18:45:00,12.1,-3.0,30.01,North,1,0.0,0.0,50,0.00,CLR,,0.00,WeatherDisplay:10.37,2013-01-03 23:45:00,
2013-01-03 18:50:00,11.9,-3.2,30.02,North,1,0.0,0.0,50,0.00,CLR,,0.00,WeatherDisplay:10.37,2013-01-03 23:50:00,
2013-01-03 18:55:00,11.3,-3.8,30.02,North,1,0.0,0.0,50,0.00,CLR,,0.00,WeatherDisplay:10.37,2013-01-03 23:55:00,
2013-01-03 19:00:00,11.7,-3.4,30.02,North,1,0.0,0.0,50,0.00,CLR,,0.00,WeatherDisplay:10.37,2013-01-04 00:00:00,
2013-01-03 19:05:00,12.7,4.4,30.02,North,1,0.0,0.0,69,0.00,BKN,,0.00,WeatherDisplay:10.37,2013-01-04 00:05:00,
2013-01-03 19:10:00,12.2,3.9,30.02,North,1,0.0,0.0,69,0.00,BKN,,0.00,WeatherDisplay:10.37,2013-01-04 00:10:00,
2013-01-03 19:15:00,11.3,3.1,30.02,North,1,0.0,0.0,69,0.00,BKN,,0.00,WeatherDisplay:10.37,2013-01-04 00:15:00,
2013-01-03 19:20:00,11.1,2.9,30.01,North,1,0.0,0.0,69,0.00,BKN,,0.00,WeatherDisplay:10.37,2013-01-04 00:20:00,
2013-01-03 19:25:00,11.0,2.8,30.01,North,1,0.0,0.0,69,0.00,BKN,,0.00,WeatherDisplay:10.37,2013-01-04 00:25:00,
2013-01-03 19:30:00,12.1,3.9,30.01,North,1,0.0,0.0,69,0.00,BKN,,0.00,WeatherDisplay:10.37,2013-01-04 00:30:00,
2013-01-03 19:40:00,11.3,3.1,30.01,North,1,0.0,0.0,69,0.00,BKN,,0.00,WeatherDisplay:10.37,2013-01-04 00:40:00,
2013-01-03 19:45:00,11.9,3.6,30.01,North,1,0.0,0.0,69,0.00,BKN,,0.00,WeatherDisplay:10.37,2013-01-04 00:45:00,
2013-01-03 19:50:00,12.9,4.7,30.02,North,1,0.0,0.0,69,0.00,BKN,,0.00,WeatherDisplay:10.37,2013-01-04 00:50:00,
2013-01-03 19:55:00,11.0,2.8,30.01,North,1,0.0,0.0,69,0.00,BKN,,0.00,WeatherDisplay:10.37,2013-01-04 00:55:00,
2013-01-03 20:00:00,9.9,1.7,30.01,North,1,0.0,0.0,69,0.00,BKN,,0.00,WeatherDisplay:10.37,2013-01-04 01:00:00,
2013-01-03 20:05:00,9.8,2.5,30.01,North,1,0.0,0.0,72,0.00,SCT,,0.00,WeatherDisplay:10.37,2013-01-04 01:05:00,
2013-01-03 20:10:00,11.9,4.6,30.01,North,1,0.0,0.0,72,0.00,SCT,,0.00,WeatherDisplay:10.37,2013-01-04 01:10:00,
2013-01-03 20:15:00,12.9,5.5,30.01,North,1,0.0,0.0,72,0.00,SCT,,0.00,WeatherDisplay:10.37,2013-01-04 01:15:00,
2013-01-03 20:20:00,11.0,3.7,30.01,North,1,0.0,0.0,72,0.00,SCT,,0.00,WeatherDisplay:10.37,2013-01-04 01:20:00,
2013-01-03 20:25:00,11.5,4.2,30.01,North,1,0.0,0.0,72,0.00,SCT,,0.00,WeatherDisplay:10.37,2013-01-04 01:25:00,
2013-01-03 20:30:00,10.3,3.1,30.01,North,1,0.0,0.0,72,0.00,SCT,,0.00,WeatherDisplay:10.37,2013-01-04 01:30:00,
2013-01-03 20:35:00,11.8,4.5,30.01,North,1,0.0,0.0,72,0.00,SCT,,0.00,WeatherDisplay:10.37,2013-01-04 01:35:00,
2013-01-03 20:40:00,11.5,4.2,30.01,North,1,0.0,0.0,72,0.00,SCT,,0.00,WeatherDisplay:10.37,2013-01-04 01:40:00,
2013-01-03 20:45:00,12.1,4.8,30.01,North,1,0.0,0.0,72,0.00,SCT,,0.00,WeatherDisplay:10.37,2013-01-04 01:45:00,
2013-01-03 20:50:00,10.8,3.6,30.01,North,1,0.0,0.0,72,0.00,SCT,,0.00,WeatherDisplay:10.37,2013-01-04 01:50:00,
2013-01-03 20:55:00,12.0,4.7,30.01,North,1,0.0,0.0,72,0.00,SCT,,0.00,WeatherDisplay:10.37,2013-01-04 01:55:00,
2013-01-03 21:00:00,11.2,4.0,30.01,North,1,0.0,0.0,72,0.00,SCT,,0.00,WeatherDisplay:10.37,2013-01-04 02:00:00,
2013-01-03 21:05:00,11.6,6.4,30.01,North,1,0.0,0.0,79,0.00,CLR,,0.00,WeatherDisplay:10.37,2013-01-04 02:05:00,
2013-01-03 21:10:00,12.5,7.2,30.01,North,1,0.0,0.0,79,0.00,CLR,,0.00,WeatherDisplay:10.37,2013-01-04 02:10:00,
2013-01-03 21:15:00,11.8,6.6,30.01,North,1,0.0,0.0,79,0.00,CLR,,0.00,WeatherDisplay:10.37,2013-01-04 02:15:00,
2013-01-03 21:20:00,11.3,6.0,30.01,North,1,0.0,0.0,79,0.00,CLR,,0.00,WeatherDisplay:10.37,2013-01-04 02:20:00,
2013-01-03 21:25:00,9.7,4.5,30.01,North,1,0.0,0.0,79,0.00,CLR,,0.00,WeatherDisplay:10.37,2013-01-04 02:25:00,
2013-01-03 21:30:00,8.9,3.7,30.00,North,1,0.0,0.0,79,0.00,CLR,,0.00,WeatherDisplay:10.37,2013-01-04 02:30:00,
2013-01-03 21:35:00,9.5,4.3,30.00,North,1,0.0,0.0,79,0.00,CLR,,0.00,WeatherDisplay:10.37,2013-01-04 02:35:00,
2013-01-03 21:40:00,9.7,4.5,30.00,North,1,0.0,0.0,79,0.00,CLR,,0.00,WeatherDisplay:10.37,2013-01-04 02:40:00,
2013-01-03 21:45:00,8.4,3.2,30.00,North,1,0.0,0.0,79,0.00,CLR,,0.00,WeatherDisplay:10.37,2013-01-04 02:45:00,
2013-01-03 21:50:00,7.9,2.8,30.00,North,1,0.0,0.0,79,0.00,CLR,,0.00,WeatherDisplay:10.37,2013-01-04 02:50:00,
2013-01-03 21:55:00,8.6,3.4,30.00,North,1,0.0,0.0,79,0.00,CLR,,0.00,WeatherDisplay:10.37,2013-01-04 02:55:00,
2013-01-03 22:00:00,9.5,4.3,30.00,North,1,0.0,0.0,79,0.00,CLR,,0.00,WeatherDisplay:10.37,2013-01-04 03:00:00,
2013-01-03 22:05:00,10.5,6.1,30.00,North,1,0.0,0.0,82,0.00,CLR,,0.00,WeatherDisplay:10.37,2013-01-04 03:05:00,
2013-01-03 22:10:00,11.0,6.6,29.99,North,1,0.0,0.0,82,0.00,CLR,,0.00,WeatherDisplay:10.37,2013-01-04 03:10:00,
2013-01-03 22:15:00,9.5,5.1,29.99,North,1,0.0,0.0,82,0.00,CLR,,0.00,WeatherDisplay:10.37,2013-01-04 03:15:00,
2013-01-03 22:20:00,10.3,5.9,29.99,North,1,0.0,0.0,82,0.00,CLR,,0.00,WeatherDisplay:10.37,2013-01-04 03:20:00,
2013-01-03 22:30:00,9.6,5.3,29.99,North,1,0.0,0.0,82,0.00,CLR,,0.00,WeatherDisplay:10.37,2013-01-04 03:30:00,
2013-01-03 22:35:00,9.9,5.5,29.99,North,1,0.0,0.0,82,0.00,CLR,,0.00,WeatherDisplay:10.37,2013-01-04 03:35:00,
2013-01-03 22:40:00,10.7,6.3,29.99,North,1,0.0,0.0,82,0.00,CLR,,0.00,WeatherDisplay:10.37,2013-01-04 03:40:00,
2013-01-03 22:45:00,9.0,4.7,29.99,North,1,0.0,0.0,82,0.00,CLR,,0.00,WeatherDisplay:10.37,2013-01-04 03:45:00,
2013-01-03 22:50:00,8.0,3.6,29.99,North,1,0.0,0.0,82,0.00,CLR,,0.00,WeatherDisplay:10.37,2013-01-04 03:50:00,
2013-01-03 22:55:00,8.2,3.8,29.98,North,1,0.0,0.0,82,0.00,CLR,,0.00,WeatherDisplay:10.37,2013-01-04 03:55:00,
2013-01-03 23:00:00,8.5,4.1,29.98,North,1,0.0,0.0,82,0.00,CLR,,0.00,WeatherDisplay:10.37,2013-01-04 04:00:00,
2013-01-03 23:05:00,8.4,4.0,29.98,North,1,0.0,0.0,82,0.00,CLR,,0.00,WeatherDisplay:10.37,2013-01-04 04:05:00,
2013-01-03 23:10:00,9.0,4.6,29.98,North,1,0.0,0.0,82,0.00,CLR,,0.00,WeatherDisplay:10.37,2013-01-04 04:10:00,
2013-01-03 23:15:00,8.8,4.4,29.98,North,1,0.0,0.0,82,0.00,CLR,,0.00,WeatherDisplay:10.37,2013-01-04 04:15:00,
2013-01-03 23:20:00,8.3,3.9,29.97,North,1,0.0,0.0,82,0.00,CLR,,0.00,WeatherDisplay:10.37,2013-01-04 04:20:00,
2013-01-03 23:30:00,8.8,4.4,29.97,North,1,0.0,0.0,82,0.00,CLR,,0.00,WeatherDisplay:10.37,2013-01-04 04:30:00,
2013-01-03 23:35:00,8.0,3.6,29.96,North,1,0.0,0.0,82,0.00,CLR,,0.00,WeatherDisplay:10.37,2013-01-04 04:35:00,
2013-01-03 23:40:00,8.5,4.2,29.96,North,1,0.0,0.0,82,0.00,CLR,,0.00,WeatherDisplay:10.37,2013-01-04 04:40:00,
2013-01-03 23:45:00,8.1,3.8,29.96,North,1,0.0,0.0,82,0.00,CLR,,0.00,WeatherDisplay:10.37,2013-01-04 04:45:00,
2013-01-03 23:50:00,8.0,3.7,29.96,North,1,0.0,0.0,82,0.00,CLR,,0.00,WeatherDisplay:10.37,2013-01-04 04:50:00,
2013-01-03 23:55:00,7.9,3.5,29.96,North,1,0.0,0.0,82,0.00,CLR,,0.00,WeatherDisplay:10.37,2013-01-04 04:55:00,